Погода в Вецваркаве

Латвия     56°11′54″N   26°30′21″E
темп.,
°C
ветер,
м/с
пор.,
м/с
влажн.,
%
обл.,
%
осадки,
мм/ч
давл.,
гПа
погр.,
м
22 мая, вс
вс2200:00+9всв3997100 0.8 1003546
03:00+8св41097100 1.0 1004523
06:00+6св4119646 0.0 1005357
09:00+10св477549 0.0 1007501
12:00+14св565288 0.0 10081436
15:00+15св5544100 0.0 10092014
18:00+14св454779 0.0 10091476
21:00+10всв2266100 0.0 101021
23 мая, пн
пн2300:00+7св2371100 0.0 101156
03:00+5св1175100 0.0 101210
06:00+5св1175100 0.0 101332
09:00+10св225472 0.0 1014478
12:00+14св334069 0.0 10141183
15:00+16св234353 0.0 10131418
18:00+16в124427 0.0 10131291
21:00+11ююз22675 0.0 101215
24 мая, вт
вт2400:00+8з22761 0.0 101424
03:00+6зсз11800 0.0 101410
06:00+7з11770 0.0 101510
09:00+15з12530 0.0 1014395
12:00+19зюз12394 0.0 10141647
15:00+21з23345 0.0 10132258
18:00+20з32404 0.0 10132059
21:00+14з22675 0.0 101313
25 мая, ср
ср2500:00+11юз117629 0.0 101410
03:00+9ююз128441 0.0 101510
06:00+9ю23845 0.0 101550
09:00+15юз3460100 0.0 1015486
12:00+16ююз3558100 0.0 1014816
15:00+14ю2673100 0.0 1014320
18:00+16ююв3464100 0.0 1012619
21:00+14юв3777100 0.0 1010283
26 мая, чт
чт2600:00+14ююв31080100 0.0 1007338
03:00+12зюз4897100 1.8 1005497
06:00+9з51097100 7.0 1006791
09:00+12з5108677 7.1 1006932
12:00+15з697873 1.0 10061270
15:00+15з6107911 3.1 10051424
18:00+13з59895 2.3 1006936
21:00+11з4119429 3.1 1006620